Regional Weather Roundup
Issued by NWS

Home | Current Version | Previous Version | Text Only | Print | Product List | Glossary Off
Versions: 1 2 3 4 5 6 7 8 9 10 11 12 13 14 15 16 17 18 19 20 21 22 23 24 25 26 27 28 29 30 31 32 33 34 35 36 37 38 39 40 41 42 43 44 45 46 47 48 49 50

000
ASUS43 KLOT 091303
RWRIL

ILLINOIS REGIONAL WEATHER ROUNDUP
NATIONAL WEATHER SERVICE CHICAGO/ROMEOVILLE IL
700 AM CST TUE FEB 09 2016

NOTE: "FAIR" INDICATES FEW OR NO CLOUDS BELOW 12,000 FEET WITH NO
SIGNIFICANT WEATHER AND/OR OBSTRUCTIONS TO VISIBILITY.

* THESE STATIONS ARE NOT UNDER NWS QUALITY CONTROL. THEY ALSO MAY NOT
  REPORT WEATHER SUCH AS PRECIPITATION OR FOG.

ILZ001-002-007-009-015-016-024-091400-
NORTHWEST ILLINOIS

CITY           SKY/WX    TMP DP  RH WIND       PRES   REMARKS
MOLINE         MOCLDY    13   5  70 NW16      29.92R WCI  -3
STERLING*      CLEAR     12   3  67 NW21G28   29.85R WCI  -6
$$

ILZ003-004-008-010-011-017-018-091400-
NORTH CENTRAL ILLINOIS

CITY           SKY/WX    TMP DP  RH WIND       PRES   REMARKS
ROCKFORD       LGT SNOW  14   7  73 NW14      29.86R BLWGSNOWWCI  -1
FREEPORT*      MOCLDY    11   4  74 NW13      29.88R WCI  -4
$$

ILZ005-006-012>014-019>023-091400-
NORTHEAST ILLINOIS

CITY           SKY/WX    TMP DP  RH WIND       PRES   REMARKS
CHICAGO-OHARE  LGT SNOW  16  11  80 NW14      29.78R WCI   2
CHICAGO-MIDWAY FLURRIES  18  10  71 NW15      29.79R WCI   4
AURORA         LGT SNOW  16  11  80 N15       29.82R WCI   1
LANSING*       FLURRIES  18  13  80 NW12G18   29.78R WCI   6
WAUKEGAN       FLURRIES  14   9  80 NW12G17   29.78R WCI   0
DUPAGE AIRPORT LGT SNOW  15   8  73 NW13      29.79R WCI   1
WHEELING       FLURRIES  15  10  80 N12G22    29.80R WCI   2
NORTHERLY ISL    N/A     19  14  81 W13         N/A  WCI   6
$$

LMZ740>746-091400-
SOUTHERN LAKE MICHIGAN

STATION/POSITION SKY/WX   TEMP    WIND        PRES    VSBY  WAVE
                          AIR SEA DIR/SP/G                  HT/PER
                          (F)     (DEG/KT/KT) (MB)    (MI)  (FT/S)
HARRISON CRIB              19     310/ 18/ 20   N/A
BURNHAM HARBOR             18     300/ 11/ 16   N/A
CALUMET HARBOR             18     300/  9/ 17 1007.3R
BURNS HARBOR               23     300/ 18/ 23 1007.5R
MICHIGAN CITY              25     280/ 23/ 26   N/A
$$

ILZ025>027-034>036-040-047-049-050-058-095>099-091400-
WEST-CENTRAL ILLINOIS

CITY           SKY/WX    TMP DP  RH WIND       PRES   REMARKS
QUINCY         LGT SNOW  15   8  73 NW21      29.96R WCI  -2
MACOMB*        CLOUDY    16  12  86 NW18      29.95R WCI  -1
$$

ILZ028>032-037-038-041>044-048-051>054-059>061-091400-
CENTRAL ILLINOIS

CITY           SKY/WX    TMP DP  RH WIND       PRES   REMARKS
BLOOMINGTON    LGT SNOW  16  11  80 NW20G25   29.84R WCI  -1
DECATUR        LGT SNOW  18  11  74 NW14      29.86R WCI   4
PEORIA         LGT SNOW  15   9  76 NW12G18   29.89R WCI   2
SPRINGFIELD    CLOUDY    18  10  71 NW12G25   29.91R WCI   5
TAYLORVILLE    NOT AVBL
$$

ILZ033-039-045-046-055>057-062-063-091400-
EAST-CENTRAL ILLINOIS

CITY           SKY/WX    TMP DP  RH WIND       PRES   REMARKS
CHAMPAIGN      CLOUDY    18  12  77 NW15      29.83R WCI   4
MATTOON        CLOUDY    18  11  74 NW14      29.83R WCI   4
$$

ILZ079-100>102-091400-
SOUTHWEST ILLINOIS

CITY           SKY/WX    TMP DP  RH WIND       PRES   REMARKS
ALTON          LGT SNOW  18  12  79 NW16G23   29.94R WCI   3
BELLEVILLE     LGT SNOW  19  16  87 NW8       29.93R FOG     WCI   9
CAHOKIA*       LGT SNOW  21  15  78 NW15      29.95R WCI   8
SPARTA*        FLURRIES  19  15  84 NW5       29.94R WCI  12
$$

ILZ064>066-069>071-074>076-080>082-084>086-088>090-092>094-091400-
SOUTH-CENTRAL ILLINOIS

CITY           SKY/WX    TMP DP  RH WIND       PRES   REMARKS
CARBONDALE     FLURRIES  20  14  77 NW10      29.94R WCI   9
MARION         LGT SNOW  21  16  79 NW12      29.94R WCI   9
MT. VERNON     CLOUDY    19  10  68 NW5       29.90R WCI  13
CENTRALIA*     CLOUDY    20  12  71 NW17      29.90R WCI   6
SALEM*         FLURRIES  20  14  76 NW14      29.90R WCI   7
$$

ILZ067-068-072-073-078-083-087-091-091400-
SOUTHEAST ILLINOIS

CITY           SKY/WX    TMP DP  RH WIND       PRES   REMARKS
LAWRENCEVILLE  LGT SNOW  19  16  88 W9        29.87R FOG     WCI   8
HARRISBURG*    CLOUDY    20  13  73 NW12G21   29.92R WCI   8
ROBINSON*      LGT SNOW  19  15  86 W9        29.87R WCI   7
CARMI*         CLOUDY    21  15  78 NW14      29.89R WCI   8
$$

ABBREVIATIONS USED IN REMARKS
   TC - TEMPERATURE IN CELSIUS
  WCI - WIND CHILL INDEX
   HX - HEAT INDEX
  VSB - VISIBILITY
$$




USA.gov is the U.S. government's official web portal to all federal, state and local government web resources and services.